Regional Weather Roundup
Issued by NWS

Home | Current Version | Previous Version | Graphics & Text | Print | Product List | Glossary On
Versions: 1 2 3 4 5 6 7 8 9 10 11 12 13 14 15 16 17 18 19 20 21 22 23 24 25 26 27 28 29 30 31 32 33 34 35 36 37 38 39 40 41 42 43 44 45 46 47 48 49 50
000
ASUS45 KCYS 211210
RWRWY

WYOMING REGIONAL WEATHER ROUNDUP
NATIONAL WEATHER SERVICE CHEYENNE WY
600 AM MDT THU SEP 21 2017

NOTE:  "FAIR" INDICATES FEW OR NO CLOUDS BELOW 12,000 FEET
WITH NO SIGNIFICANT WEATHER AND/OR OBSTRUCTIONS TO VISIBILITY.

WYZ001-211300-
YELLOWSTONE NATIONAL PARK

CITY           SKY/WX    TMP DP  RH WIND       PRES   REMARKS
LK YELLOWSTONE NOT AVBL
W YELLOWSTONE  NOT AVBL

$$
WYZ002>013-054>058-071-098>099-211300-
NORTHERN WYOMING

CITY           SKY/WX    TMP DP  RH WIND       PRES   REMARKS
JACKSON        CLOUDY    33  32  96 E3        29.78S
CODY           LGT RAIN  43  40  89 VRB5      29.73S
GREYBULL       CLOUDY    50  46  86 NW10      29.68F
6HR MIN TEMP:  50; 6HR MAX TEMP:  62; 6HR PCP:  0.02;

WORLAND        FAIR      45  43  93 SW3       29.71R
6HR MIN TEMP:  44; 6HR MAX TEMP:  58;

SHERIDAN       CLOUDY    49  40  71 W12       29.74R
6HR MIN TEMP:  49; 6HR MAX TEMP:  64;

BUFFALO        FAIR      46  34  62 N12       29.73R
6HR MIN TEMP:  46; 6HR MAX TEMP:  57;

GILLETTE       FAIR      41  36  82 CALM      29.67R
6HR MIN TEMP:  40; 6HR MAX TEMP:  58; 6HR PCP: TRACE;

HULETT         FAIR      54  34  47 CALM      29.70R
NEWCASTLE      FAIR      57  32  38 SE15G22   29.68S

$$
WYZ014>020-022>026-101>103-211300-
CENTRAL WYOMING

CITY           SKY/WX    TMP DP  RH WIND       PRES   REMARKS
BIG PINEY      FAIR      35  33  92 E3        29.77R
6HR MIN TEMP:  35; 6HR MAX TEMP:  44;

PINEDALE       CLOUDY    36  36 100 CALM      29.77S
DUBOIS         CLOUDY    34  32  93 W6        29.76R WCI  29
LANDER           N/A    N/A N/A N/A MISG      29.69R
RIVERTON       FAIR      44  36  73 CALM      29.70R
6HR MIN TEMP:  42; 6HR MAX TEMP:  54;

CASPER         FAIR      41  34  76 NW12      29.69R
6HR MIN TEMP:  39; 6HR MAX TEMP:  49;

DOUGLAS        FAIR      51  31  46 SE15      29.69R
6HR MIN TEMP:  50; 6HR MAX TEMP:  56;


$$
WYZ021-027>030-104>119-211300-
SOUTHERN WYOMING

CITY           SKY/WX    TMP DP  RH WIND       PRES   REMARKS
EVANSTON       FAIR      40  37  89 N8        29.76R WCI  34
6HR MIN TEMP:  40; 6HR MAX TEMP:  49;

KEMMERER         N/A     36  34  93 W3        29.77F
FORT BRIDGER   FAIR      41  38  90 NW8       29.79S
ROCK SPRINGS   FAIR      51  31  46 CALM      29.76R
6HR MIN TEMP:  50; 6HR MAX TEMP:  57;

DIXON          FAIR      62  26  25 S20G31    29.83R
RAWLINS        FAIR      58  27  30 SW21G29   29.78R
6HR MIN TEMP:  44; 6HR MAX TEMP:  60;

SARATOGA       FAIR      61  25  25 S14G40    29.81S
LARAMIE        FAIR      50  24  36 SE13      29.85R
6HR MIN TEMP:  43; 6HR MAX TEMP:  56;

CHEYENNE       FAIR      42  31  64 W8        29.81S
6HR MIN TEMP:  40; 6HR MAX TEMP:  55;

TORRINGTON     FAIR      47  36  65 E9        29.73R
6HR MIN TEMP:  47; 6HR MAX TEMP:  56;

PINE BLUFFS    FAIR      36  32  87 MISG      29.79F

$$



USA.gov is the U.S. government's official web portal to all federal, state and local government web resources and services.